Theta_e
364 358 357 361 359 355 354 356 369 368 364 364 365 363 356 351 343 350 354 354 355 354
363 363 361 363 363 358 366 359 362 363 362 362 363 362 358 349 342 344 356 358 357 353
365 367 366 365 364 364 363 363 362 361 359 358 358 357 356 353 355 354 357 356 356 355
361 364 364 360 357 356 356 357 356 355 354 354 354 354 355 355 355 355 357 357 354 358
352 356 355 352 353 355 354 354 354 354 354 353 352 352 350 349 353 353 353 354 355 352
344 345 344 344 347 350 351 350 348 351 355 353 354 353 353 351 350 352 349 351 355 345
342 344 345 347 347 348 349 348 348 348 349 349 349 349 350 352 352 351 351 354 354 353
344 345 345 346 347 349 350 348 347 345 345 346 344 341 342 344 344 346 348 347 352 347
342 341 342 343 344 345 346 347 348 343 344 344 341 334 335 339 341 341 341 341 339 344
339 339 339 341 341 341 342 345 344 343 343 342 342 332 331 334 341 340 339 340 341 342
338 338 339 340 340 340 339 340 341 342 343 341 340 330 328 330 341 341 341 342 342 342
337 337 337 336 337 338 338 338 338 340 342 341 340 328 325 329 339 339 340 341 345 344
335 335 332 333 331 332 334 332 332 333 335 333 337 328 322 326 333 331 332 334 336 333
330 330 331 331 333 332 334 332 333 333 335 338 334 336 322 320 330 329 329 330 332 335
Wind_Speed
12 10 11 12 11 12 12 12 12 11 14 17 16 10 8 7 6 18 16 16 12 10
7 10 11 12 12 11 11 11 13 14 15 15 16 15 12 9 13 14 18 19 17 12
6 7 7 7 9 10 11 12 12 13 14 15 14 15 15 13 16 18 17 14 15 10
9 8 7 7 9 10 11 12 14 15 16 16 16 16 15 18 19 19 18 17 15 14
8 8 9 10 10 11 11 11 12 13 14 14 14 14 15 18 15 19 19 18 16 16
10 10 11 12 12 12 12 13 14 14 12 12 14 16 15 15 17 18 18 18 17 15
12 11 12 13 13 13 13 13 13 14 13 14 13 13 14 15 15 16 16 17 18 17
13 14 15 15 15 15 14 14 15 15 15 15 14 12 13 13 15 14 14 14 15 14
14 14 15 15 16 15 16 15 13 15 16 16 13 11 8 12 15 15 15 15 10 15
14 15 15 16 16 16 15 15 15 15 16 16 17 12 11 12 14 15 16 16 14 15
14 15 15 15 15 15 15 15 15 16 17 17 16 10 11 12 17 15 17 17 18 17
15 16 16 16 15 16 15 16 16 14 17 16 18 18 14 12 13 15 17 16 15 15
14 15 15 12 12 12 12 13 12 14 14 17 17 17 13 12 9 10 9 13 15 15
13 12 13 14 13 13 12 11 12 11 13 16 17 18 16 12 11 9 8 10 11 11
Wind_Direction
261 262 268 265 270 277 281 274 274 251 242 248 241 230 180 163 195 230 254 241 222 231
285 275 282 289 287 279 278 277 272 278 270 261 256 234 219 216 222 231 237 239 232 223
345 331 319 306 301 299 294 291 287 278 273 264 246 235 241 243 235 235 235 232 231 222
355 347 341 333 321 309 301 295 289 288 286 278 272 263 249 240 250 245 237 232 228 218
341 327 311 311 311 310 303 304 296 292 288 283 278 272 266 262 248 247 243 231 223 217
343 328 319 316 313 309 305 304 303 302 299 299 294 289 275 262 262 254 249 238 226 219
340 326 313 310 304 301 299 298 300 302 300 291 291 286 281 279 278 266 257 248 240 229
331 323 317 310 305 299 297 293 297 298 295 291 289 284 305 290 287 282 280 267 252 246
326 322 317 316 316 313 305 299 294 295 297 295 288 299 243 261 280 278 274 263 249 256
328 323 321 317 314 311 312 312 306 302 301 296 296 289 280 256 278 279 276 270 257 258
329 322 322 322 321 318 313 314 311 310 305 303 300 289 274 275 286 277 268 266 265 260
329 325 324 323 326 323 325 318 313 316 324 316 309 317 315 299 294 285 280 268 259 262
336 328 325 333 332 320 324 322 323 311 308 315 312 299 279 282 284 274 268 274 276 276
328 330 322 321 321 321 323 316 308 318 319 313 328 311 298 275 282 276 265 267 270 268